Theta_e
307 307 307 306 306 306 306 307 306 307 307 307 307 307 307 307 307 307 307 307 307 308 308 308 309 309 309 309 310 310 310 310 311 315 318 319 318 319 317 315 313 313 314 315 315 315 316 316 316 315 317 320 320 322 321 321 327 335 337 326 325 331 329 330 324 318 320 320 319 318 318 317 317 317 317 317 317 319 319 319 317 315 316 315 316 315 316 320
308 308 308 308 308 308 308 307 307 307 307 307 307 307 308 308 308 308 308 308 308 308 308 309 309 309 309 309 309 310 310 311 315 319 321 321 320 321 318 315 313 312 313 314 315 315 316 317 315 316 320 322 321 321 321 323 325 331 331 325 331 335 331 327 320 318 319 317 320 320 318 318 317 315 317 317 317 318 317 318 316 317 317 315 314 313 316 320
308 308 309 309 309 309 309 308 308 308 308 308 308 309 309 309 309 309 309 308 308 309 308 309 309 309 309 309 310 310 310 314 322 323 320 321 321 319 316 314 314 313 312 315 316 315 316 317 314 317 320 320 322 323 323 322 323 330 327 325 335 335 327 323 320 319 318 317 319 320 318 319 319 317 316 316 317 319 318 317 317 318 317 316 316 313 317 321
308 308 309 309 309 309 309 309 309 309 309 309 309 310 310 310 310 309 309 309 308 308 308 309 308 308 309 309 310 309 312 318 324 321 316 318 317 315 314 313 314 313 313 316 317 317 316 316 314 317 318 319 324 324 325 325 323 327 324 327 336 329 321 323 322 320 319 319 319 320 320 319 319 317 316 316 317 318 317 317 317 318 316 316 317 314 315 319
308 308 309 309 310 310 310 310 310 310 309 309 310 311 311 310 310 309 309 309 310 310 310 310 310 310 310 310 310 312 315 318 319 316 314 315 314 314 314 314 315 313 314 316 317 316 317 316 314 317 318 319 322 321 324 326 322 323 323 326 330 324 321 322 321 320 320 320 320 321 320 319 318 317 316 316 317 317 316 317 317 317 317 315 315 314 314 316
310 309 309 310 311 310 311 311 310 310 309 309 311 311 312 312 311 311 311 311 312 312 313 312 312 312 312 312 311 314 316 316 316 316 315 314 314 315 314 314 314 313 314 316 316 316 317 316 315 318 318 318 320 318 320 322 319 322 323 322 323 321 319 319 318 318 318 318 319 320 319 318 318 317 316 315 316 316 315 316 316 316 315 314 313 314 316 319
311 310 310 310 310 310 310 310 310 310 310 311 312 313 313 314 314 314 314 313 313 313 313 313 313 313 313 313 316 318 319 318 317 319 318 315 315 315 314 314 314 314 315 316 316 316 317 317 315 318 317 317 318 317 317 317 317 321 322 322 322 320 319 319 318 317 317 318 318 319 318 318 318 318 316 316 316 315 315 315 315 314 312 313 314 315 317 319
312 312 311 312 311 310 311 311 312 313 313 314 314 315 315 315 316 316 316 315 315 314 313 313 313 312 313 314 319 323 322 320 318 319 320 316 315 315 314 314 314 314 315 316 316 316 317 317 317 317 316 316 317 317 317 316 318 318 318 320 319 319 319 318 317 317 317 316 317 318 318 318 319 318 317 317 316 315 315 314 314 314 313 314 314 314 316 318
313 313 312 313 313 312 313 314 315 316 315 316 316 317 317 317 317 317 317 317 316 316 314 315 313 311 312 314 320 323 321 320 319 319 318 315 315 314 314 315 314 314 315 316 316 315 316 318 318 316 316 318 317 316 317 316 318 318 316 317 316 316 316 315 316 315 315 315 315 315 316 317 317 317 317 317 316 316 315 314 315 314 315 315 314 315 314 317
315 314 312 313 314 314 315 316 316 317 317 317 317 318 318 318 318 318 318 318 318 318 317 316 313 311 312 315 321 322 320 321 321 321 318 315 314 314 314 316 315 314 315 316 316 315 316 317 318 317 317 318 315 316 316 315 316 316 315 316 316 316 315 314 315 314 314 314 313 313 314 314 315 316 316 316 316 316 315 314 314 314 315 315 315 315 313 315
315 313 312 313 315 316 316 317 318 318 318 318 318 318 318 318 319 319 319 319 318 318 317 316 313 312 314 318 323 322 319 319 319 320 317 314 314 314 315 318 317 315 316 317 316 316 316 316 316 317 317 316 315 316 316 314 314 315 315 316 316 316 315 314 314 314 313 313 314 314 313 313 314 316 315 315 315 315 315 314 314 314 313 314 314 314 315 315
315 313 314 315 316 317 317 317 318 318 319 319 319 319 319 319 320 319 319 317 317 316 315 314 311 312 315 318 322 320 318 319 317 317 316 316 316 316 316 318 318 316 316 317 317 316 316 316 316 317 316 315 316 315 315 314 313 315 314 315 316 315 315 315 314 314 313 313 315 314 314 315 315 316 316 315 315 314 314 315 314 314 314 314 313 316 318 313
314 314 315 316 317 317 317 317 317 318 319 320 321 321 320 321 321 319 317 315 315 314 313 312 310 311 316 319 318 315 316 318 318 317 317 318 317 316 317 318 318 317 317 317 316 315 315 315 316 317 316 316 317 315 314 314 313 315 314 314 316 315 316 316 314 315 314 314 316 315 316 319 318 316 316 315 314 314 315 316 315 314 313 313 314 316 316 310
314 314 316 317 317 316 316 316 317 318 319 321 321 321 321 322 320 317 315 314 314 313 312 311 310 313 316 318 316 313 315 317 318 318 317 317 316 316 316 317 317 316 316 317 316 315 314 315 315 315 315 316 317 315 315 314 314 314 313 316 317 316 321 320 315 316 315 313 315 314 316 320 319 317 318 316 315 315 316 316 316 314 313 313 315 315 313 309
314 315 316 317 316 316 316 317 318 319 320 321 321 321 322 321 318 315 314 313 311 311 311 310 311 316 317 316 315 314 315 316 317 318 317 316 316 315 315 316 316 316 316 315 315 314 313 314 314 316 316 317 315 314 317 318 318 315 314 324 323 317 321 321 316 317 316 314 313 313 317 318 316 316 317 317 316 315 316 316 315 314 313 313 313 312 310 309
316 316 316 317 316 316 317 318 319 321 322 322 321 321 321 319 315 313 312 311 311 312 313 313 314 317 317 314 315 314 314 315 317 317 316 316 317 316 315 315 315 314 314 313 313 314 313 314 315 316 316 316 315 316 320 321 324 321 316 322 325 319 319 320 319 319 316 316 313 313 316 317 317 318 318 318 316 315 316 315 313 313 313 312 311 310 309 308
317 316 316 317 318 318 319 319 320 322 323 322 321 320 321 319 315 312 311 310 313 315 316 317 315 314 314 313 314 316 316 315 316 317 315 315 316 316 314 314 313 313 313 312 312 312 312 313 314 315 315 315 316 317 321 322 324 327 322 320 323 320 318 320 322 321 317 316 315 315 314 314 316 317 317 316 316 315 314 314 314 313 312 312 310 309 308 306
318 318 318 319 320 320 321 321 321 322 323 322 321 320 321 319 314 313 312 311 314 315 316 316 314 316 317 314 314 317 317 316 316 315 314 314 316 315 314 313 313 313 312 313 314 312 312 315 316 317 317 315 315 315 319 323 322 326 325 322 323 322 320 321 320 320 319 318 318 318 317 315 315 315 315 315 315 314 314 313 313 313 313 311 310 309 307 306
320 320 320 321 322 321 321 322 322 322 322 322 321 321 322 319 315 314 313 315 320 323 321 316 317 322 321 317 316 317 315 314 314 314 312 314 315 315 314 313 313 313 314 316 317 313 315 319 318 318 320 318 316 314 317 320 320 321 321 320 321 321 320 320 318 319 319 317 319 319 318 317 317 317 316 316 315 314 313 313 313 314 313 311 310 308 307 306
321 321 321 322 322 322 322 322 323 323 322 322 321 323 324 324 325 321 317 319 322 324 323 317 317 320 318 318 318 316 314 313 314 315 313 312 314 314 314 313 315 315 316 321 320 315 317 321 320 321 323 320 318 315 314 315 316 317 318 319 321 321 320 319 318 320 318 316 319 320 318 317 317 317 316 314 314 314 313 314 314 314 313 310 309 307 306 305
321 321 321 322 323 323 322 322 323 323 322 321 322 324 323 324 327 325 322 323 320 317 319 317 315 316 316 318 316 314 316 315 314 316 313 312 314 314 315 315 316 317 318 322 320 315 315 320 322 323 321 318 317 315 314 315 316 316 318 320 322 322 320 317 317 317 315 315 321 321 317 317 316 315 315 314 314 313 314 314 314 314 311 309 308 306 305 304
321 321 321 322 323 322 322 323 323 322 322 321 322 322 318 316 318 317 319 324 321 316 317 318 317 318 318 317 315 314 318 318 316 316 314 313 314 315 317 316 317 321 320 319 319 317 317 319 321 320 318 317 317 316 316 318 318 319 320 320 322 321 320 321 320 317 315 316 321 322 317 316 316 315 314 314 313 314 314 315 314 312 310 308 307 306 304 303
321 321 321 322 322 322 322 323 322 322 322 321 321 320 317 315 314 312 314 320 322 319 319 320 320 321 321 317 314 315 318 319 320 320 315 312 314 317 317 315 317 321 319 318 320 321 321 322 319 316 315 316 316 317 319 318 319 322 321 320 323 321 319 322 323 320 317 316 319 319 317 317 316 316 316 313 313 313 312 312 311 309 308 307 305 304 303 302
322 321 321 322 322 322 322 322 322 322 323 321 320 319 317 316 313 312 315 320 322 322 320 319 319 322 320 315 314 316 319 319 320 319 314 313 316 317 317 316 317 319 318 317 319 321 322 322 319 317 317 318 318 319 319 318 322 326 324 321 322 321 319 320 321 320 319 321 321 317 319 324 320 317 319 315 312 312 311 309 309 308 307 305 304 303 302 301
323 322 322 322 323 323 323 323 323 323 323 322 320 319 317 316 313 312 317 322 324 324 320 317 319 318 314 312 314 316 317 317 317 315 313 313 315 316 317 316 316 319 320 318 317 320 320 319 319 319 319 319 320 321 321 319 321 326 327 323 321 321 320 322 324 323 323 326 323 316 323 331 323 319 322 317 314 313 311 309 309 307 306 305 304 303 302 301
324 323 322 323 323 323 323 323 323 322 323 321 320 319 317 316 314 312 317 324 327 327 322 318 319 316 312 312 314 315 317 316 313 312 313 313 312 314 316 317 317 319 320 319 320 322 320 319 321 322 323 321 320 322 324 321 320 323 325 325 324 321 320 323 323 322 324 326 320 314 320 326 321 319 322 319 316 314 310 310 308 306 305 304 303 303 302 301
325 324 323 323 323 323 323 324 323 322 323 322 320 318 318 318 314 313 320 329 329 327 322 317 316 315 312 311 311 315 321 318 312 310 312 312 311 312 315 318 319 318 319 320 323 325 320 318 321 322 323 322 322 325 325 322 323 325 324 323 325 321 319 320 317 318 323 322 319 318 316 319 321 321 319 318 318 314 310 310 308 306 305 303 302 301 301 300
325 324 324 323 323 324 323 324 323 323 323 322 320 319 319 317 314 315 325 333 332 323 319 315 311 312 311 309 310 314 316 314 314 312 310 311 311 312 315 318 317 317 319 321 327 328 320 318 323 324 323 323 326 330 326 321 323 326 322 318 320 316 315 318 316 318 321 318 323 326 317 318 325 327 320 316 317 314 311 310 307 305 304 302 302 301 300 300
324 324 324 324 323 324 323 323 323 322 322 321 321 321 320 316 315 320 328 332 330 321 316 312 310 311 311 310 311 312 310 310 315 313 310 310 310 311 314 315 314 314 316 319 325 325 319 319 324 327 324 324 329 331 327 324 322 321 318 319 323 320 317 317 316 319 319 317 325 327 320 320 327 334 326 316 318 316 311 310 307 305 304 302 302 301 300 300
323 324 324 323 323 322 322 323 323 322 321 321 322 322 320 318 318 326 331 329 327 321 314 312 314 313 312 311 312 311 310 311 313 312 312 312 311 311 311 311 311 316 321 323 323 321 317 314 316 321 322 323 327 323 320 322 319 317 320 325 327 325 323 320 321 324 320 321 330 328 323 320 323 336 332 317 318 318 312 310 307 304 303 302 301 301 300 300
323 323 323 322 322 321 322 323 322 322 321 320 322 321 321 322 322 330 333 325 324 323 314 313 315 312 312 316 315 311 311 313 312 313 314 313 313 312 312 314 315 320 326 326 323 319 316 314 316 320 319 319 322 318 317 320 319 318 323 324 324 328 329 323 323 326 321 327 336 329 324 321 320 333 334 319 316 315 313 311 306 304 303 301 301 300 299 299
321 321 321 320 321 321 322 322 322 322 321 321 322 322 324 325 326 330 329 322 325 325 318 318 317 314 316 318 318 314 313 314 312 314 317 317 317 315 317 323 323 321 325 328 326 321 320 321 321 319 316 316 320 319 319 323 322 321 322 322 324 327 327 323 324 325 323 329 333 323 320 320 321 328 327 320 316 313 312 309 304 303 302 301 300 299 299 299
319 319 319 319 320 320 321 321 321 321 321 321 322 323 325 327 328 329 327 325 327 324 321 322 319 318 320 319 320 318 316 316 313 313 317 319 319 318 319 324 324 320 321 324 326 324 324 325 320 316 317 319 319 318 321 325 320 318 320 322 326 325 322 323 324 322 321 326 326 319 316 320 323 322 317 314 310 308 308 305 303 302 301 300 300 300 299 299
317 317 318 319 319 320 320 320 320 321 320 320 322 324 324 327 327 326 326 326 325 322 322 322 319 319 321 322 324 320 317 320 316 313 317 317 319 321 321 319 319 320 321 320 321 322 324 325 322 320 320 319 317 316 325 331 321 316 321 324 326 328 326 324 322 321 323 327 327 321 318 323 324 317 310 306 304 303 303 302 301 300 299 300 299 300 300 299
316 315 317 318 318 319 319 319 319 319 319 320 323 325 325 327 327 326 328 326 324 324 322 322 322 321 322 324 325 323 319 321 318 316 319 320 321 326 326 321 318 319 322 322 322 320 319 323 325 320 316 316 316 316 323 329 323 317 318 321 324 327 327 323 323 324 323 325 325 321 321 326 321 310 305 305 303 302 302 300 300 300 299 300 300 300 300 299
313 313 314 315 316 318 319 319 319 318 319 320 325 327 325 326 327 328 328 324 323 326 323 323 325 323 324 325 325 324 320 320 321 319 321 321 321 324 324 322 320 318 319 321 323 320 317 323 324 316 314 315 316 317 318 320 323 319 317 323 327 325 321 321 324 323 319 319 321 318 320 324 320 311 306 305 304 303 302 300 300 300 300 300 300 300 299 298
310 310 310 311 313 315 317 318 319 317 319 322 326 326 323 324 326 326 325 321 321 325 324 325 326 323 325 325 324 325 321 320 321 320 324 324 321 322 321 318 319 317 316 318 321 321 319 321 323 318 316 316 313 316 318 317 319 320 320 325 325 320 319 321 322 322 320 319 320 318 318 319 319 316 309 306 306 303 301 300 300 300 301 301 300 299 299 299
307 307 309 309 310 312 314 317 318 316 319 323 325 325 323 323 322 321 323 321 320 324 325 326 325 322 324 323 324 325 321 321 321 321 325 324 320 322 321 318 317 315 316 318 319 322 321 320 322 320 318 317 314 317 321 317 315 317 320 321 319 319 322 323 321 321 321 320 320 321 320 318 318 317 313 309 306 303 301 301 302 302 302 302 301 299 299 299
307 310 313 311 309 309 311 314 316 316 320 324 325 324 323 322 322 321 321 320 321 324 326 327 324 322 322 321 322 323 320 321 322 321 323 322 319 320 319 319 318 315 318 321 320 322 323 322 322 319 316 319 319 321 325 320 315 317 319 318 319 320 321 321 320 321 321 319 320 321 320 319 317 315 313 309 305 303 304 304 303 303 303 303 303 301 300 300
308 314 316 311 309 308 309 312 316 318 321 323 323 323 321 320 322 321 319 318 321 323 324 325 324 323 322 321 320 320 320 322 323 321 322 321 318 318 319 321 319 316 319 324 321 321 322 321 322 321 318 319 322 324 325 322 318 319 318 317 318 318 319 319 318 319 319 319 320 319 319 321 316 310 309 307 304 304 306 306 306 305 305 303 302 302 301 300
309 315 314 309 308 308 309 314 317 319 321 320 319 320 319 318 320 320 319 318 321 323 324 323 323 322 322 321 321 319 318 321 322 320 320 320 318 318 318 318 318 317 320 325 323 321 321 320 323 325 321 320 323 324 321 317 317 320 320 320 320 318 319 318 317 318 318 317 319 318 318 320 314 307 306 306 304 304 304 306 307 306 304 303 301 301 301 299
312 316 313 309 308 308 311 315 315 317 319 319 317 317 317 317 318 320 321 320 320 321 321 321 320 320 320 321 321 318 317 320 321 320 320 321 321 320 317 316 317 320 321 322 319 318 320 321 322 323 320 319 320 319 318 316 315 318 319 320 321 319 318 318 318 319 318 317 318 318 317 318 312 307 306 304 304 305 303 306 310 307 303 302 301 300 299 297
312 313 311 308 308 309 312 314 313 315 317 317 316 316 316 316 318 320 320 321 321 320 320 320 320 320 319 319 319 318 318 320 321 321 323 324 320 316 316 317 318 320 320 319 318 318 320 321 320 320 320 319 317 315 316 317 317 317 317 316 318 317 316 317 316 315 315 316 317 317 316 317 314 309 307 304 303 304 302 304 311 312 305 301 300 298 297 297
309 310 310 309 308 310 312 313 313 313 315 315 315 315 315 315 317 318 319 319 321 320 319 319 319 319 317 316 317 318 318 319 320 320 322 323 319 313 313 317 318 317 316 317 319 319 319 318 317 317 318 317 316 313 313 316 318 316 314 314 315 314 313 314 313 313 313 313 314 315 316 317 314 309 306 305 305 305 305 304 307 311 308 302 298 298 298 297
308 309 311 309 308 310 312 313 313 313 314 316 316 315 315 315 315 316 317 318 319 319 319 319 319 318 317 317 317 318 318 318 318 319 319 319 316 312 311 314 318 317 314 314 317 318 318 317 315 316 316 315 314 312 312 316 316 312 311 312 312 311 310 310 311 312 312 311 311 312 312 313 311 308 307 307 307 307 307 306 305 306 306 302 299 299 298 297
308 310 311 310 309 309 311 312 313 314 314 315 316 315 315 315 315 316 317 317 317 318 319 319 319 317 317 318 318 318 318 317 317 318 318 317 314 312 310 312 315 316 313 312 315 317 316 315 315 315 315 313 311 311 311 313 313 311 311 312 310 309 308 308 310 310 310 309 308 308 309 308 308 307 306 306 308 307 305 304 304 304 304 301 299 298 298 297
306 309 311 312 310 309 310 311 312 313 314 315 315 315 315 315 314 315 316 317 317 317 317 318 318 317 318 318 318 318 318 317 317 318 318 316 313 310 310 310 310 311 311 311 313 316 315 314 314 313 313 313 311 310 309 308 308 310 309 309 308 307 307 307 308 308 308 308 306 305 305 305 305 305 304 304 304 304 304 304 304 304 302 300 298 298 296 296
304 307 307 308 311 311 310 311 312 312 313 314 314 314 315 316 314 314 316 317 317 316 317 317 317 317 318 318 317 318 317 316 317 317 316 315 313 310 310 309 308 308 310 310 311 314 315 313 312 311 312 312 310 308 307 305 306 307 306 306 306 305 304 305 305 306 306 306 305 304 304 304 304 303 303 302 302 302 302 302 301 301 299 298 297 297 296 296
302 303 302 304 308 310 310 310 310 312 313 313 313 313 314 315 313 313 316 318 317 316 316 316 316 316 317 317 316 316 316 315 315 315 314 312 311 311 311 310 307 306 308 309 308 310 311 311 311 309 309 308 307 306 305 305 305 305 305 305 304 304 304 304 303 304 304 305 304 304 304 303 302 301 302 303 302 301 300 298 298 299 299 299 298 298 298 298
300 301 301 303 306 307 309 310 310 311 312 312 312 312 312 313 313 314 315 315 316 317 315 315 316 315 316 316 315 315 314 314 315 313 312 311 310 310 311 310 307 305 307 307 306 306 308 308 308 307 307 307 306 305 305 306 306 304 304 303 302 302 302 301 301 301 301 302 302 302 302 301 301 303 303 301 299 298 297 297 297 298 299 298 297 297 297 297
297 298 299 301 304 306 309 310 310 311 311 311 311 311 311 311 313 315 314 310 311 314 314 314 315 313 312 312 313 313 311 311 312 310 309 310 309 308 309 309 306 305 306 306 305 307 308 307 305 306 306 306 303 303 304 305 304 302 301 300 300 300 299 300 300 300 300 300 300 300 301 300 302 304 301 297 296 296 295 294 293 294 296 295 293 294 295 295
296 297 297 298 302 305 307 309 310 310 310 310 310 310 311 311 312 314 313 308 307 309 309 310 312 311 311 311 311 310 307 305 306 305 304 305 305 305 307 308 306 307 306 305 305 307 308 307 307 306 305 302 300 301 302 302 300 299 299 299 299 299 299 299 300 300 300 300 300 301 300 300 302 303 299 295 295 294 293 293 292 292 293 293 293 293 295 295
Wind_Speed
4 4 4 4 3 4 4 4 5 5 5 5 5 6 6 6 7 7 7 7 7 8 9 9 10 10 11 12 13 15 17 18 18 14 10 9 7 6 6 6 4 1 4 5 5 4 3 1 3 3 3 2 1 0 1 1 2 4 3 3 1 3 3 4 3 2 1 3 5 4 0 4 2 4 2 3 3 4 7 8 5 5 8 12 20 22 12 9
5 5 5 4 4 4 4 5 5 5 5 6 5 6 6 7 7 7 8 8 8 9 9 10 10 10 11 12 13 15 17 19 17 13 10 7 4 4 5 5 3 1 4 6 5 5 4 1 4 4 4 2 1 1 1 2 2 3 3 2 3 5 5 4 3 5 3 4 6 4 3 5 1 3 1 2 7 6 7 10 7 8 11 12 18 15 7 12
6 6 6 5 5 5 4 5 5 6 6 6 6 5 6 6 7 7 8 7 7 8 9 10 9 10 10 11 12 13 16 16 10 7 6 5 2 2 2 2 1 1 3 6 4 5 5 4 4 6 3 1 2 1 1 1 0 1 3 2 5 6 5 7 6 6 5 4 5 5 4 4 5 3 1 3 8 8 8 9 7 11 13 11 11 7 5 13
7 7 6 6 6 5 5 5 5 6 6 6 6 6 6 6 7 8 8 8 8 8 9 9 9 9 8 9 9 11 13 8 3 3 3 7 5 2 1 2 2 2 5 6 3 5 7 6 2 5 3 1 3 2 2 3 2 1 4 4 6 4 4 8 7 8 7 5 4 4 5 7 6 2 1 4 6 7 8 9 8 12 16 12 9 7 4 10
7 6 6 6 6 6 6 5 5 5 5 5 6 7 6 7 7 8 8 8 8 8 8 9 8 8 7 8 7 8 8 4 1 2 4 6 5 3 1 3 3 3 7 5 3 3 5 5 2 3 2 1 3 2 3 6 4 1 4 7 7 4 4 7 7 7 6 6 6 6 6 5 5 4 3 4 6 9 9 8 10 12 14 13 10 10 8 7
7 6 6 6 6 6 6 5 5 5 5 6 7 7 7 8 8 9 9 9 9 9 8 8 8 7 6 5 4 4 3 0 3 2 3 4 5 3 1 2 1 4 8 5 2 1 1 2 3 1 1 1 3 2 6 5 5 3 4 5 7 7 6 5 5 6 6 6 6 5 4 3 6 9 5 5 9 14 12 9 10 11 14 16 12 8 8 9
6 6 6 6 5 5 6 5 4 5 5 6 7 8 8 8 9 10 10 11 11 11 9 8 8 7 5 3 2 3 1 4 7 5 7 6 4 2 1 2 1 6 9 6 3 2 2 1 0 3 2 2 4 5 6 4 4 5 5 5 7 7 6 5 5 6 6 6 7 5 5 4 6 9 3 5 11 15 16 11 10 14 16 16 11 9 9 10
7 6 6 6 5 5 5 4 4 5 5 6 7 8 8 9 10 10 11 11 11 12 11 9 7 6 4 0 1 3 1 7 9 6 7 7 4 3 2 3 3 9 9 7 6 3 3 3 4 3 1 3 3 3 4 5 1 5 4 4 3 4 5 7 6 7 8 7 6 6 9 8 9 7 6 11 15 15 17 12 9 12 14 14 12 12 10 10
7 6 6 6 5 4 4 4 4 5 6 6 7 8 9 9 10 11 11 12 12 12 11 8 6 3 1 1 3 2 4 7 8 8 7 6 5 3 3 3 5 10 8 7 7 4 2 3 5 3 2 3 2 3 3 3 3 3 2 3 4 5 6 7 7 9 10 7 5 6 11 11 6 5 9 13 15 14 11 10 9 8 11 13 12 11 9 9
7 6 6 5 4 3 3 4 4 5 6 7 8 8 9 10 11 12 12 13 13 13 12 8 5 1 3 2 5 0 6 5 7 8 6 5 4 3 5 3 5 9 7 4 5 4 2 2 3 3 3 1 1 3 3 1 3 2 4 6 6 6 7 6 7 13 11 8 8 7 12 14 4 2 7 11 12 11 8 10 10 7 9 11 11 10 6 7
7 6 5 3 2 3 2 3 4 5 7 7 8 9 9 11 11 12 13 14 13 13 11 7 4 3 4 4 4 3 5 5 6 4 3 3 4 4 5 4 3 7 6 3 2 2 1 2 1 2 2 1 2 5 5 2 2 2 3 7 9 7 9 9 10 14 8 5 9 9 9 13 2 5 10 14 13 10 9 12 13 10 9 9 9 8 5 5
6 5 3 1 1 2 2 3 4 5 7 8 8 9 10 11 12 12 12 12 13 12 10 6 2 5 5 3 4 8 5 5 5 3 2 3 3 3 5 5 4 7 7 3 1 4 4 2 5 3 2 1 1 4 3 2 2 4 2 4 10 6 8 14 11 11 7 4 5 8 3 8 4 8 13 14 12 9 9 12 13 11 10 8 6 5 6 7
5 3 3 1 1 2 3 4 5 6 7 8 9 10 11 12 12 12 11 11 11 11 9 4 4 7 5 0 5 10 11 9 6 3 3 3 3 3 6 7 7 7 7 4 2 4 4 2 5 3 2 1 1 2 0 1 3 5 2 1 6 6 6 12 7 7 6 3 6 9 1 6 9 12 13 12 9 7 8 10 10 9 9 6 5 5 6 11
3 2 2 1 1 3 4 5 6 7 9 10 10 11 12 13 13 11 11 11 10 9 6 1 7 8 4 3 4 6 12 11 8 6 4 4 4 4 6 8 7 7 6 4 2 2 4 4 5 2 0 2 2 3 4 4 2 4 2 1 2 2 6 10 6 5 4 2 4 8 3 6 9 11 11 11 7 6 8 10 10 10 7 5 6 5 8 10
2 1 1 1 2 3 4 5 6 8 9 10 11 12 13 13 11 11 11 9 7 5 1 4 8 7 1 5 5 3 7 7 7 6 4 4 4 3 4 6 6 5 4 3 1 1 2 3 4 2 2 2 0 2 4 4 3 2 1 3 2 3 5 10 9 5 3 3 3 4 4 5 7 10 11 10 8 7 9 11 12 11 9 7 6 6 8 7
1 1 1 2 2 2 4 4 6 8 9 11 12 12 13 11 9 9 9 6 3 3 5 4 6 4 1 3 1 1 4 4 7 7 5 5 4 3 5 4 3 3 1 0 1 1 3 4 2 2 1 2 2 3 3 4 4 2 2 4 4 3 3 6 7 5 2 2 3 1 3 4 5 8 10 10 10 9 9 14 14 10 8 7 6 7 7 7
1 2 1 2 2 3 4 5 6 8 10 11 12 13 13 10 7 6 6 4 4 6 6 3 2 1 2 1 0 1 4 5 7 8 6 6 5 6 7 4 3 4 4 4 3 2 2 2 0 1 1 1 2 4 4 2 4 4 1 3 4 5 3 3 6 6 3 3 2 3 4 6 7 8 9 12 12 11 10 13 13 9 6 6 7 8 8 9
0 1 1 2 3 3 4 6 6 8 10 11 11 13 12 8 5 3 3 3 3 3 3 2 2 0 2 1 2 2 3 5 7 6 7 8 8 9 5 2 4 6 5 3 2 2 2 2 2 1 2 1 2 4 2 5 5 4 4 3 4 4 4 5 5 5 4 3 4 6 6 8 9 9 10 12 13 12 11 8 8 8 5 7 8 8 8 10
1 1 2 2 3 4 5 7 7 8 10 10 11 12 9 5 3 3 1 1 1 1 0 1 3 2 2 2 3 3 5 7 7 4 7 9 9 9 4 2 6 5 4 1 2 1 2 3 3 1 2 3 5 7 8 9 8 8 7 4 5 5 5 6 6 5 4 4 6 7 7 7 7 9 9 12 14 12 9 6 6 4 6 8 8 8 8 10
3 2 2 3 3 5 6 7 7 8 10 10 11 10 5 2 2 2 1 1 4 5 2 4 6 3 4 1 5 6 6 6 4 3 8 9 8 7 2 1 4 3 2 4 2 2 3 4 2 4 6 9 10 11 10 9 8 7 6 5 5 5 5 5 6 7 3 2 6 5 4 6 7 9 12 15 14 10 8 8 5 4 8 7 8 8 8 9
7 4 3 4 5 5 6 8 8 8 9 10 10 6 1 1 1 1 2 3 8 11 8 9 11 9 8 4 8 9 5 2 0 3 8 8 8 7 1 2 4 1 3 4 2 0 3 4 6 9 11 12 10 9 7 7 6 5 5 4 4 5 5 5 6 7 3 2 5 4 5 8 9 10 15 16 12 9 8 5 2 9 9 7 8 8 8 7
9 7 5 5 5 5 6 7 8 9 8 6 6 3 3 2 1 1 1 3 8 10 11 13 11 11 11 5 7 8 4 1 1 2 7 8 5 5 3 3 5 4 3 4 3 2 2 4 10 13 11 9 8 6 6 7 6 5 4 2 4 4 3 5 6 4 4 2 5 6 6 8 10 12 16 16 9 5 4 3 7 9 9 8 8 7 8 8
11 8 6 6 5 6 7 6 8 9 6 3 4 2 2 2 1 1 1 1 6 7 7 8 7 8 7 3 5 6 3 4 3 4 8 9 3 4 4 5 6 4 3 5 5 5 4 6 12 13 8 6 7 8 7 6 4 4 4 2 5 4 1 3 6 5 4 2 3 4 6 5 7 12 13 8 4 6 8 11 10 9 10 9 8 7 8 9
12 10 8 7 7 7 7 7 8 8 5 2 2 1 2 2 1 2 1 0 4 5 4 4 3 3 3 3 4 5 2 3 2 4 9 10 4 3 5 5 7 4 4 8 10 8 7 8 9 7 5 7 8 9 6 4 4 3 4 4 4 5 4 5 4 4 5 4 2 3 5 4 5 10 8 3 8 8 7 11 11 9 9 9 9 9 9 9
14 12 10 9 8 7 6 7 7 4 3 2 1 1 2 2 1 2 1 1 3 4 2 1 1 1 2 3 3 4 2 1 1 2 6 7 3 2 2 3 5 5 6 8 8 7 8 7 4 5 5 6 7 7 5 4 2 4 3 6 7 7 6 4 3 5 5 4 4 5 5 6 4 5 8 2 6 6 6 8 9 8 7 8 9 8 8 8
17 16 13 12 10 7 4 3 3 3 3 3 3 1 1 2 2 3 2 2 3 4 1 1 0 2 3 2 2 3 2 1 2 0 3 2 0 2 2 2 1 4 6 4 3 3 5 3 1 4 5 4 4 5 4 6 3 2 4 4 4 3 1 2 4 4 2 2 4 3 1 6 3 3 10 3 7 6 5 7 7 6 7 7 7 7 7 7
18 18 16 14 11 8 4 2 4 4 2 4 4 2 2 2 1 3 1 3 3 2 3 0 1 2 3 1 1 4 2 2 1 2 2 2 2 2 1 2 1 2 2 2 1 3 3 1 4 4 3 4 3 4 5 7 6 2 5 3 6 4 3 2 4 2 3 2 5 3 4 4 3 6 9 1 8 5 4 6 6 6 7 7 7 7 7 7
18 19 17 15 13 12 9 4 4 4 3 4 4 2 1 1 2 1 2 1 3 2 2 1 1 2 1 1 2 4 1 1 3 1 1 3 1 2 1 3 3 3 3 5 2 5 1 3 3 4 4 3 4 5 5 8 5 5 5 4 6 3 3 3 3 1 3 2 5 6 3 1 4 6 5 4 8 4 4 5 5 6 6 7 7 7 8 7
19 20 18 16 14 14 14 10 6 5 5 5 3 1 1 1 1 3 2 2 0 2 1 0 2 1 1 2 1 2 1 0 2 1 1 3 1 2 2 3 2 2 3 4 5 6 1 4 6 6 5 4 6 5 5 8 4 4 3 4 4 2 1 1 3 2 2 2 4 7 3 2 5 6 3 3 4 4 4 4 5 5 6 7 7 7 6 6
20 21 20 18 17 16 16 14 12 9 6 5 2 1 2 1 1 2 4 4 1 1 0 1 2 1 3 4 1 1 2 0 1 1 2 1 2 3 0 1 2 2 2 3 2 5 2 1 3 4 4 6 4 1 3 5 4 3 4 4 6 5 3 2 2 3 3 2 6 7 6 5 3 5 3 2 3 7 7 5 5 6 6 7 6 6 5 5
23 23 22 20 17 16 12 10 16 16 11 9 4 1 2 2 1 4 6 2 1 1 2 1 1 3 4 4 2 2 2 1 1 2 1 1 3 3 1 1 2 3 3 4 4 4 3 1 2 2 2 3 5 3 2 3 3 5 5 4 4 4 4 4 4 4 2 4 7 7 6 7 4 5 5 1 3 10 11 9 10 8 7 6 5 5 5 4
24 21 19 18 16 16 11 6 13 17 15 12 6 2 2 0 2 4 2 1 1 2 3 2 3 4 5 4 3 4 3 2 2 3 3 3 2 2 2 3 3 1 3 3 2 3 2 4 4 3 2 3 6 2 3 5 5 5 4 5 3 2 3 2 2 0 2 5 6 4 2 3 5 6 6 3 4 3 7 9 12 11 9 7 5 4 4 4
20 17 16 16 15 15 13 7 9 14 14 12 7 3 3 3 4 3 3 2 1 1 2 2 2 4 4 4 3 4 3 2 4 3 3 4 3 3 4 4 6 3 2 4 0 2 3 5 3 1 3 2 7 4 2 2 1 4 4 4 4 1 0 3 3 1 3 5 6 3 1 1 4 5 2 4 6 4 8 11 10 10 9 8 6 4 4 4
16 15 15 16 16 15 13 8 8 12 15 13 7 2 3 5 3 2 5 4 1 0 1 3 2 3 3 3 4 4 3 2 5 4 2 4 3 3 4 5 6 4 2 3 1 2 2 5 3 5 2 3 8 6 5 5 3 4 5 5 5 4 4 4 3 3 3 4 5 4 1 1 2 1 3 7 7 8 10 11 9 9 8 6 6 5 4 4
13 13 13 15 16 15 15 10 8 14 16 10 4 3 5 5 1 2 4 3 1 1 2 2 3 3 1 2 2 3 2 2 3 4 3 4 4 4 3 4 7 6 3 2 2 2 4 5 5 2 1 6 6 4 5 7 1 2 3 4 2 4 5 2 3 5 3 3 4 2 2 4 3 4 5 7 9 10 10 9 10 8 6 5 5 4 3 4
11 10 10 11 13 14 16 12 10 15 14 6 3 5 5 3 2 3 3 2 2 3 2 1 3 3 2 2 2 3 0 1 3 3 2 3 3 5 5 3 5 8 7 4 2 2 3 5 4 3 2 4 4 2 3 4 0 1 2 2 4 4 5 1 4 2 2 3 4 2 2 4 1 4 5 7 10 9 7 8 8 6 5 5 3 3 3 2
9 7 5 6 11 13 14 13 13 15 10 4 6 7 3 3 3 3 2 1 3 4 4 2 2 3 3 2 3 4 1 1 2 3 2 3 2 4 5 1 1 6 7 3 2 3 3 3 5 1 1 3 2 1 2 2 2 3 2 4 3 1 3 2 1 2 2 4 4 2 4 5 2 1 2 6 7 6 5 6 6 4 4 4 3 3 3 3
7 4 1 6 11 13 12 13 14 12 5 3 8 7 3 3 3 3 3 2 3 3 3 3 3 4 4 3 3 4 4 2 2 3 2 2 3 3 5 2 3 2 1 2 2 1 2 1 6 1 3 3 2 4 3 4 3 3 3 2 1 1 1 1 2 2 4 5 4 4 7 5 3 3 2 4 5 5 5 4 4 3 3 4 4 4 5 5
7 3 1 3 8 11 12 12 11 6 3 5 8 6 3 2 3 3 3 2 2 3 3 3 3 2 2 3 3 2 4 4 4 4 1 2 3 1 3 2 1 3 4 4 4 1 2 2 4 3 1 0 4 4 1 2 4 3 2 2 1 3 3 2 2 3 3 4 4 4 5 3 2 3 4 6 6 7 5 4 4 5 5 6 6 6 6 5
5 2 0 1 3 9 11 9 6 4 4 4 3 2 1 1 4 5 3 3 2 2 2 3 3 3 3 3 2 2 3 4 4 4 2 2 3 1 2 1 2 1 4 5 4 1 2 2 3 4 3 2 1 1 4 4 0 2 2 1 2 1 1 2 2 2 3 3 3 4 5 4 3 2 5 7 8 8 8 7 6 7 7 7 7 6 6 5
3 1 0 1 6 11 11 6 3 3 4 3 1 1 1 1 2 4 2 5 3 1 2 2 2 3 3 3 3 2 2 3 3 3 2 2 2 1 0 1 2 2 3 5 3 1 1 2 2 3 3 1 4 5 5 6 4 4 2 3 3 2 1 3 4 2 3 3 3 3 5 4 2 2 4 7 7 7 8 8 7 8 8 7 7 7 6 4
2 1 2 5 11 15 11 3 4 3 3 3 2 1 1 1 1 2 1 2 2 2 2 2 2 2 2 3 4 2 2 2 3 3 3 3 2 1 1 2 1 3 4 3 0 0 2 3 2 3 4 4 6 5 1 0 3 4 2 2 3 3 3 3 5 2 1 1 1 1 3 2 1 2 3 6 6 7 8 8 7 7 7 7 7 5 3 3
2 3 4 9 16 16 8 3 4 4 5 3 1 2 2 1 2 3 3 2 2 3 3 2 4 4 4 4 4 3 3 2 4 5 4 2 2 1 3 4 2 4 4 3 1 1 3 3 1 3 4 4 4 4 4 5 1 2 1 2 1 2 4 4 3 1 0 2 1 2 4 2 1 3 2 3 5 5 6 6 6 6 6 6 5 3 4 4
2 2 3 10 18 16 6 4 5 6 7 4 2 4 3 2 4 5 5 5 4 4 3 3 5 5 6 6 5 6 6 4 4 6 4 3 2 0 4 4 3 3 1 2 3 1 1 2 2 0 3 5 6 4 4 5 3 1 2 2 2 3 3 2 1 1 2 3 2 3 5 2 3 2 1 2 4 5 6 7 6 5 5 5 4 4 5 5
2 2 2 8 16 12 5 4 4 6 9 8 7 8 6 4 5 6 6 6 5 4 3 3 4 5 6 6 6 7 7 5 3 3 2 2 1 2 4 5 4 4 1 1 3 4 2 3 4 3 3 5 5 4 2 0 2 1 2 3 1 3 3 1 0 1 2 1 1 3 4 3 2 3 3 3 4 4 6 6 6 5 5 5 5 5 5 5
2 2 1 4 8 7 4 3 4 4 6 8 8 9 10 9 5 5 8 7 6 6 4 2 3 4 5 7 6 5 5 4 3 2 2 3 1 1 2 3 4 3 2 2 4 4 3 1 3 5 6 7 6 6 4 3 1 3 4 6 7 4 3 3 2 2 3 2 3 7 7 5 9 11 7 3 3 6 8 7 7 5 4 5 5 5 4 4
1 2 3 5 4 5 6 5 5 5 4 6 6 5 10 12 7 4 7 7 6 7 5 2 4 6 6 7 6 5 5 3 3 4 3 3 2 1 1 3 4 3 2 3 2 3 4 1 3 6 7 7 6 5 1 3 2 5 6 8 10 7 3 4 3 5 5 2 6 11 8 5 10 14 9 4 5 7 7 7 7 3 4 5 5 5 4 4
2 0 2 2 2 5 8 8 10 10 7 6 4 3 6 10 9 7 6 4 4 7 5 3 5 8 8 7 6 4 5 5 4 4 4 3 3 2 2 3 2 2 4 3 2 4 5 3 4 4 5 7 5 3 1 1 2 5 6 9 11 10 6 6 7 8 7 6 10 11 9 9 11 11 9 9 8 5 4 4 2 2 5 6 5 5 4 4
2 1 3 2 0 4 7 9 12 13 12 8 5 5 6 7 9 8 4 3 2 5 6 6 7 9 8 7 6 5 6 6 5 4 3 3 3 3 2 1 2 3 5 3 1 3 4 2 2 3 4 7 6 3 1 1 4 6 8 11 12 11 8 7 9 9 7 8 11 11 12 14 13 10 9 9 5 2 4 3 3 5 5 5 5 5 5 5
1 1 1 2 2 2 3 5 9 10 10 9 7 8 5 4 6 5 2 3 4 4 6 9 8 7 8 8 7 6 6 6 6 5 5 5 3 2 2 2 1 2 4 2 0 1 2 1 1 2 1 6 4 2 3 4 5 7 11 14 13 11 10 10 10 8 7 10 12 11 13 14 10 6 5 3 1 5 4 3 4 5 5 5 5 5 5 5
4 2 1 1 2 2 1 3 6 7 7 8 9 9 6 7 7 3 1 1 3 3 5 9 8 4 4 7 7 7 5 6 7 5 5 6 5 3 2 3 4 4 2 1 0 1 2 1 0 4 1 6 2 4 4 3 3 7 14 17 16 11 10 10 8 7 9 10 10 9 9 9 6 3 2 2 4 5 4 4 3 2 4 5 5 5 5 5
5 4 2 2 1 2 2 3 5 7 7 7 8 8 7 8 6 5 1 2 2 1 3 7 9 5 3 6 7 6 6 7 7 5 4 4 4 4 3 3 5 6 4 3 1 1 3 3 1 4 2 5 1 5 4 2 5 7 11 12 13 11 10 9 7 9 11 9 7 7 7 6 5 4 4 2 2 4 4 3 3 2 3 4 5 5 5 5
Wind_Direction
318 316 310 310 308 307 306 305 308 311 311 306 304 306 306 309 311 312 314 316 319 320 321 322 328 334 336 338 336 333 330 326 324 317 290 293 297 280 310 334 339 281 177 164 151 145 132 147 224 168 102 17 32 57 339 338 70 56 81 104 235 219 213 210 212 280 231 262 283 279 334 92 339 321 339 331 326 287 291 288 272 268 255 247 260 271 268 211
324 322 317 316 306 305 304 301 308 307 302 299 302 302 303 305 304 307 309 310 313 313 315 318 327 333 336 340 336 335 331 325 322 311 299 311 299 264 299 326 336 206 182 170 174 176 156 213 224 157 88 18 314 25 355 311 82 95 129 148 228 211 228 251 279 314 330 293 297 316 14 53 338 293 346 295 288 292 292 286 299 295 275 267 273 280 252 209
329 329 326 324 317 314 308 306 311 305 303 307 310 309 309 308 307 310 308 309 311 311 315 319 328 333 338 338 336 338 329 327 328 313 342 46 112 234 297 331 7 155 179 167 183 210 207 261 214 160 86 344 269 67 57 319 300 169 140 180 243 224 259 292 300 312 317 306 321 329 357 357 294 279 359 273 281 286 272 268 286 289 281 279 282 291 215 205
325 327 326 325 323 320 315 314 311 305 310 317 320 320 317 316 314 311 310 314 313 314 317 320 328 331 336 338 337 336 330 341 340 295 58 90 113 123 105 30 37 145 167 163 189 233 258 289 203 154 102 293 291 79 150 228 210 174 145 191 235 229 267 277 290 309 316 341 350 319 335 325 294 294 293 275 290 283 261 248 241 261 276 276 271 292 246 203
319 320 323 322 323 321 318 312 308 312 317 319 322 320 319 317 312 308 311 317 316 318 320 321 325 328 337 340 337 334 346 23 279 240 122 116 125 135 96 45 38 165 171 170 202 226 268 303 52 83 76 256 307 44 224 219 169 186 203 206 226 233 264 271 291 310 315 335 337 328 322 298 299 313 259 247 268 264 259 250 238 242 262 272 272 288 282 232
318 319 322 318 325 328 323 317 319 324 322 320 321 321 322 318 315 315 315 317 316 317 320 324 324 328 339 343 336 336 10 79 250 219 178 167 148 159 51 32 2 182 178 173 207 224 269 332 45 60 108 212 255 220 246 234 155 213 258 228 228 232 241 264 292 305 311 308 300 301 281 286 323 302 252 210 245 259 264 254 254 255 259 272 281 282 276 268
320 324 323 317 323 325 317 317 324 325 320 321 322 325 326 325 325 323 321 320 317 316 317 323 322 322 333 327 314 350 73 239 262 270 247 218 185 232 309 295 258 184 184 172 188 200 164 127 165 188 161 252 230 216 258 287 168 205 262 254 243 244 246 279 302 312 310 274 258 276 300 306 290 289 283 232 249 262 270 261 255 268 271 277 281 271 260 261
322 326 322 317 315 314 315 321 331 329 326 327 327 330 330 329 327 323 323 319 316 315 314 321 323 325 339 278 260 355 322 247 261 270 243 217 220 262 266 263 207 188 187 182 197 194 155 179 217 200 191 254 239 241 286 342 268 221 252 258 276 284 284 304 307 303 298 274 263 287 294 270 246 274 296 272 268 266 270 273 259 265 277 279 274 269 262 255
320 321 316 317 319 322 327 338 345 337 335 336 333 333 330 327 324 321 318 314 313 311 312 321 319 317 307 127 89 360 269 244 255 254 233 223 236 241 225 220 193 194 189 197 218 220 186 204 223 198 185 237 274 291 323 25 286 265 318 318 324 304 293 306 305 289 285 278 265 272 279 269 241 276 285 267 266 267 274 284 270 261 269 272 272 265 259 259
314 316 312 313 326 332 335 350 353 345 343 340 338 335 329 326 322 318 315 311 310 307 310 316 308 260 200 146 93 289 260 251 262 252 229 221 216 192 192 182 183 197 196 216 240 249 217 203 229 183 169 241 289 296 342 46 252 306 11 335 306 297 299 296 291 283 280 276 256 239 265 273 232 186 274 266 260 273 295 295 283 271 258 263 272 273 270 264
306 314 312 314 331 328 341 358 354 350 346 341 337 333 327 325 320 315 313 309 307 304 307 309 289 201 175 145 134 220 253 251 259 252 211 180 158 164 176 170 182 199 208 240 284 346 86 128 63 123 174 332 330 313 318 274 272 321 13 334 304 313 313 287 277 276 277 273 241 202 245 276 248 175 248 263 267 285 300 293 291 287 270 262 267 286 306 295
302 313 313 317 324 332 1 358 353 351 344 341 335 331 327 324 318 313 311 308 307 304 304 308 254 183 154 128 208 228 236 235 237 221 174 154 152 174 180 185 195 200 212 227 66 58 71 88 73 98 231 353 349 314 291 248 329 313 345 332 301 331 314 280 271 263 255 251 210 154 228 282 251 227 243 257 274 296 297 287 288 286 281 281 286 310 331 359
296 311 310 304 346 17 11 356 353 350 345 343 337 334 330 324 320 316 314 310 308 304 304 306 191 170 146 229 240 233 235 234 235 233 208 205 228 214 197 197 197 202 211 208 141 73 58 61 92 135 222 94 269 279 282 346 353 311 333 140 291 342 306 273 266 261 259 237 171 143 209 268 241 248 254 263 276 292 289 281 284 284 282 301 329 343 14 37
286 309 308 305 33 30 13 358 356 351 346 343 339 335 330 327 324 319 318 314 310 306 301 210 167 155 137 249 264 250 237 233 242 249 240 228 214 194 200 205 203 206 213 208 175 73 49 47 72 83 231 143 235 312 354 346 327 295 334 111 268 305 280 283 289 285 285 287 150 151 208 254 250 262 268 274 282 293 296 291 288 287 290 322 334 1 51 54
282 311 338 32 40 34 16 2 359 352 345 341 337 333 329 328 325 324 324 319 316 310 272 152 161 144 77 275 273 255 222 220 228 228 219 203 184 178 192 199 204 202 214 219 186 60 57 62 71 81 283 262 117 7 350 335 316 287 313 311 285 192 262 298 297 281 250 306 42 142 221 265 261 269 273 280 296 312 310 294 287 292 309 332 341 33 69 59
245 122 78 61 54 40 18 6 1 353 343 338 331 329 329 325 324 330 333 336 358 72 101 125 159 138 3 274 251 180 192 196 204 197 187 190 190 170 155 150 163 158 154 170 122 92 83 78 77 142 261 304 120 101 39 357 326 310 198 242 264 228 268 303 300 305 136 104 10 203 242 282 269 272 278 285 297 309 301 286 289 303 329 356 32 60 68 50
170 128 91 77 77 49 20 4 359 350 339 333 328 326 325 318 314 332 354 36 84 93 83 82 152 136 287 238 94 223 195 186 191 188 187 188 179 158 145 117 108 122 94 67 80 87 75 79 124 153 58 334 143 106 53 337 293 304 257 224 246 243 255 290 296 315 60 95 304 265 242 254 266 283 291 290 290 288 275 277 292 311 351 46 71 69 63 53
67 60 56 71 65 40 18 2 354 346 337 330 328 325 321 313 292 294 7 60 88 76 48 35 100 87 279 230 207 201 157 166 174 180 186 177 166 163 159 116 119 112 81 42 33 71 49 32 87 54 347 343 139 129 174 230 226 245 254 251 267 257 256 275 279 297 334 341 297 284 267 264 275 282 282 279 273 269 267 277 297 314 33 84 82 73 68 60
285 4 1 14 28 12 2 359 352 345 335 327 329 327 324 324 288 262 268 46 74 113 239 209 159 160 251 222 189 140 116 149 153 160 176 167 166 174 181 134 123 105 88 44 325 141 118 50 65 92 263 237 209 194 203 217 214 226 243 248 261 267 267 267 264 275 311 319 285 270 269 278 286 285 282 277 274 277 289 305 300 318 80 95 81 74 70 61
248 267 315 324 344 347 345 347 344 344 335 326 333 335 336 3 345 311 268 213 217 224 230 208 199 233 280 214 142 141 133 144 148 167 170 164 162 161 171 100 94 57 120 151 207 206 123 106 153 199 215 224 223 215 214 224 226 233 254 263 259 264 272 273 273 281 330 349 267 260 292 296 290 292 288 279 283 296 302 303 311 64 89 88 81 78 70 65
248 249 278 296 309 328 337 337 334 339 333 324 334 346 99 124 359 314 293 271 247 240 247 244 226 237 254 200 155 161 150 123 195 182 170 164 151 147 183 121 108 299 218 156 147 126 109 145 212 218 217 227 233 227 226 238 243 242 242 249 262 257 258 271 275 284 351 32 269 294 343 306 292 291 284 281 292 307 297 281 99 96 93 80 79 77 69 67
238 238 253 275 294 311 318 325 325 328 325 318 338 9 128 130 144 194 276 298 277 249 239 252 246 245 248 211 170 170 152 158 227 232 186 162 151 175 190 130 145 213 196 125 96 122 147 211 234 228 222 237 257 254 245 252 257 261 257 257 273 271 288 294 290 307 17 27 278 307 324 297 294 284 277 285 304 335 356 68 96 97 94 81 74 71 65 60
235 230 242 259 270 283 294 304 306 311 312 320 358 31 99 63 105 145 134 286 291 267 229 241 242 242 243 193 161 156 162 203 204 241 195 159 154 196 170 152 179 211 180 158 159 161 181 233 239 235 223 229 259 264 257 268 279 259 254 259 272 286 348 285 295 330 337 282 261 295 295 285 284 275 280 307 25 70 66 71 72 76 88 84 76 70 64 62
238 229 237 252 260 275 284 283 288 292 290 307 16 51 51 22 153 161 124 231 281 275 240 224 209 209 203 151 146 145 169 215 189 223 189 165 161 169 171 178 181 202 211 191 184 184 209 226 226 228 210 197 230 258 255 261 289 264 216 207 246 270 237 231 277 329 331 322 343 357 322 284 247 259 281 14 82 82 73 78 73 66 77 80 75 67 60 62
241 235 236 246 257 269 275 281 285 270 246 238 203 134 48 358 231 169 111 346 282 289 283 211 141 118 134 114 137 149 139 228 259 218 177 171 172 147 195 198 173 212 228 206 196 207 236 243 224 237 240 195 207 247 229 188 281 307 244 217 225 240 244 256 332 7 15 343 332 31 5 289 257 256 270 261 93 67 52 75 79 72 68 71 71 64 58 57
243 239 237 243 250 248 255 273 245 200 205 221 204 172 4 309 230 180 105 28 285 272 197 169 158 156 154 116 138 120 94 268 282 76 122 131 281 133 195 245 172 219 224 207 201 218 240 256 158 203 223 181 193 256 228 167 123 315 259 210 179 177 176 4 27 32 41 261 294 38 99 271 302 269 266 257 98 79 59 70 78 78 70 70 69 63 59 52
245 238 236 241 238 219 213 200 192 194 197 206 190 177 277 292 226 199 100 8 282 215 128 289 348 139 160 181 111 109 132 230 15 22 75 64 342 79 146 242 181 225 230 107 31 255 206 112 71 120 136 135 178 261 234 157 124 228 250 107 93 81 79 89 74 78 227 248 311 294 196 257 296 253 260 150 107 95 73 77 75 78 74 72 68 59 57 51
248 238 233 234 227 213 213 204 186 195 185 170 163 171 280 268 210 169 91 308 282 109 106 290 68 97 117 59 76 107 171 183 107 300 354 70 11 54 112 225 182 245 266 116 186 267 186 158 185 142 113 139 199 228 189 146 142 232 228 114 94 106 154 160 109 189 257 18 317 278 188 231 270 261 279 108 127 135 124 118 93 86 82 77 73 64 60 56
250 238 233 229 221 213 217 218 204 191 179 158 140 99 355 258 203 76 94 232 299 81 33 85 115 84 62 66 34 118 125 67 144 226 359 81 69 71 154 218 164 267 285 129 192 258 255 193 193 139 131 200 219 226 163 148 180 223 181 98 56 66 148 137 133 152 10 25 263 253 190 192 269 281 313 84 137 173 165 140 105 98 94 83 81 76 69 63
246 234 229 220 209 204 208 217 222 216 194 179 182 13 3 317 98 104 210 222 84 99 126 95 151 147 109 102 325 208 135 110 144 89 27 92 42 30 112 218 86 77 347 10 259 253 291 271 193 144 181 200 187 172 112 139 161 121 87 50 20 2 20 44 95 89 53 304 252 239 203 187 266 285 231 143 143 162 155 141 131 113 96 85 74 72 68 64
237 227 220 211 205 200 193 210 225 222 215 210 215 33 31 13 99 191 220 204 81 169 144 137 169 125 136 139 154 190 146 137 158 108 95 106 54 24 23 23 39 52 12 341 304 286 327 331 242 242 221 147 107 78 29 43 100 96 75 62 29 338 7 28 9 45 95 252 259 243 204 181 210 261 240 242 121 156 160 161 153 130 106 95 76 69 61 51
225 218 212 207 206 202 194 212 220 216 217 212 195 116 101 85 228 213 218 88 131 194 160 167 179 165 177 158 147 179 162 167 189 149 149 149 134 174 185 178 163 53 331 266 286 320 287 235 254 303 295 139 111 89 344 359 38 82 85 80 69 342 1 6 320 358 203 247 251 232 169 182 218 249 257 326 18 145 148 139 140 129 116 107 89 80 67 52
211 208 201 198 197 195 196 202 199 200 200 186 163 114 123 200 228 189 178 205 208 187 131 115 144 159 153 143 168 181 158 179 188 178 174 150 157 227 246 221 177 157 235 211 244 343 300 294 287 289 298 174 139 151 229 303 89 123 134 130 127 122 18 261 263 264 259 265 257 245 28 321 266 283 300 47 31 43 89 100 115 116 114 113 105 94 74 58
197 195 191 189 190 192 192 184 174 181 178 166 150 115 150 204 233 160 190 217 209 98 78 85 102 109 122 164 198 175 162 204 178 165 171 141 149 234 256 247 211 179 169 173 202 188 208 302 251 186 246 180 164 184 172 144 152 173 163 141 145 159 172 217 233 219 246 272 279 284 345 217 222 324 59 83 66 59 79 91 94 93 98 104 97 85 71 56
185 181 182 187 191 192 190 185 169 168 170 163 155 180 191 206 209 147 202 219 151 83 24 41 92 103 163 239 223 194 185 217 169 141 169 172 173 203 205 219 208 185 145 159 230 180 177 252 249 221 198 156 171 221 149 112 75 226 143 114 165 192 172 204 234 200 199 285 287 269 237 223 167 93 66 79 76 67 70 77 82 82 79 82 82 78 72 57
173 171 176 187 196 196 191 188 173 170 174 163 175 209 216 206 172 179 207 191 149 127 100 31 79 114 235 277 242 231 190 134 157 132 213 209 201 216 205 209 201 184 170 170 211 185 175 254 279 7 31 162 177 238 148 119 162 206 109 175 222 185 146 183 276 246 151 254 259 202 244 282 29 68 51 63 69 65 62 69 79 81 78 86 100 105 93 83
158 159 175 202 209 201 191 188 180 180 184 179 201 213 206 193 201 203 197 122 131 121 126 188 171 156 207 246 229 217 163 119 157 144 228 232 236 227 197 200 283 189 183 176 209 206 167 260 283 92 125 242 201 99 20 44 118 133 163 227 237 92 101 121 258 290 264 245 264 269 256 274 287 251 54 72 75 70 68 75 81 85 99 123 150 163 179 190
138 129 213 235 223 209 193 190 188 186 190 207 214 214 181 199 227 199 169 130 121 110 126 199 199 170 184 202 227 201 162 183 179 158 203 233 238 220 167 159 352 347 228 119 150 236 118 247 291 286 153 259 14 61 4 350 50 125 182 223 96 98 293 321 151 220 246 246 272 274 257 258 223 206 150 121 127 111 98 98 108 131 162 169 181 205 219 218
131 120 284 255 227 215 197 189 190 195 218 222 217 211 178 211 253 216 163 109 100 122 155 208 195 177 200 196 215 192 165 185 180 162 168 211 225 259 101 141 58 353 358 94 139 249 91 137 282 309 119 357 26 55 188 284 357 35 37 355 39 166 192 223 208 194 217 248 268 258 253 264 248 203 160 150 145 133 134 140 154 186 200 198 198 204 215 216
121 120 357 43 192 195 181 177 193 217 226 222 208 192 143 197 262 248 185 136 116 130 180 208 188 199 227 222 229 215 187 198 186 176 193 199 214 313 35 94 120 20 10 64 103 55 61 131 239 298 344 50 38 213 169 170 334 27 30 334 278 242 216 264 256 184 171 231 259 257 255 260 263 215 146 144 149 155 160 158 177 206 208 205 205 202 209 211
110 91 187 112 150 155 150 162 223 235 230 230 183 161 162 158 267 283 218 170 172 138 125 148 179 211 219 225 233 205 180 208 196 192 215 227 246 240 199 22 131 156 44 48 57 68 101 156 183 271 311 165 226 235 164 145 147 144 172 214 204 205 237 273 268 216 169 203 207 240 269 267 256 226 148 148 159 169 171 167 183 210 211 209 216 211 205 192
114 108 147 154 155 147 139 179 242 252 257 238 197 197 209 165 198 271 227 156 167 162 116 129 183 218 231 231 234 207 178 209 208 213 222 230 244 204 324 338 80 119 95 91 144 108 114 115 133 251 252 220 239 257 238 196 191 166 188 231 197 186 170 211 250 238 176 249 143 163 262 266 265 248 178 162 171 175 180 178 185 207 215 215 219 211 176 150
141 142 147 160 161 150 141 213 225 237 255 247 235 239 221 185 207 209 195 174 166 164 166 180 177 188 222 230 234 234 219 216 218 218 215 206 200 229 311 330 49 78 80 126 208 5 71 88 88 281 290 303 301 324 19 13 17 152 309 327 177 188 163 172 219 223 223 262 272 265 254 221 206 255 230 177 179 183 196 201 196 207 220 222 213 178 148 157
151 125 123 165 170 163 168 213 201 220 234 225 232 229 219 228 219 202 194 197 190 169 177 196 175 178 202 204 212 224 214 214 233 220 200 178 164 119 338 349 62 86 67 175 178 155 97 129 122 18 306 321 332 345 15 15 28 130 257 284 131 128 119 110 162 195 224 229 217 241 249 209 171 204 216 190 186 194 224 228 215 216 227 222 188 159 162 163
140 126 72 168 179 183 203 204 185 222 227 219 227 223 217 233 220 200 198 204 200 178 175 204 187 177 188 192 205 218 208 207 231 219 164 133 128 13 357 3 64 111 181 181 125 122 140 160 136 134 209 247 273 270 227 299 338 280 265 291 272 160 179 233 107 170 230 249 212 231 245 264 259 218 208 216 215 236 252 245 237 235 222 197 166 158 161 155
144 179 134 152 182 208 231 202 177 218 223 215 226 224 216 227 230 194 196 213 217 195 178 178 166 168 189 191 194 214 219 212 199 180 148 139 173 305 335 21 55 110 162 89 78 92 110 158 169 164 195 226 234 228 194 127 144 255 270 287 282 255 197 158 122 171 205 228 262 249 243 266 282 276 262 225 239 279 288 290 287 267 196 164 149 147 154 168
192 202 178 157 173 212 224 220 203 205 209 206 216 221 214 219 230 211 201 209 204 187 185 183 166 180 196 185 184 210 217 206 186 181 170 145 127 11 41 62 56 70 100 73 53 87 101 251 229 180 208 235 222 222 230 85 166 223 242 264 269 263 211 160 178 210 202 211 260 258 253 251 264 274 280 270 270 278 281 284 290 273 149 142 137 138 157 194
219 240 202 183 178 200 208 210 206 208 218 219 225 241 216 206 205 209 207 199 186 183 195 218 196 193 188 171 176 198 194 197 207 194 172 146 131 104 31 26 26 44 61 44 1 87 111 241 242 169 221 254 244 246 311 58 220 227 240 255 261 260 236 202 220 224 205 223 255 261 269 264 259 270 285 291 288 276 225 223 234 134 125 128 136 151 185 223
226 284 285 297 265 212 213 202 197 208 219 219 231 248 225 198 201 208 183 145 206 212 204 214 211 197 186 172 169 183 188 192 208 208 173 146 143 139 110 357 334 31 66 70 357 75 108 236 241 161 227 265 264 259 239 220 253 260 260 257 258 262 250 221 229 228 206 223 246 259 268 267 268 275 281 285 283 172 147 145 122 123 136 148 162 184 213 236
212 244 280 331 315 251 237 191 183 202 219 216 226 238 225 203 213 214 165 172 202 214 204 206 203 187 190 193 184 195 200 173 173 194 173 151 160 162 161 191 202 49 60 86 306 17 84 181 224 122 241 280 273 174 180 222 244 266 271 264 260 265 263 252 248 241 230 239 245 252 259 265 277 280 263 273 75 104 102 87 104 139 161 165 182 209 228 245
258 269 149 30 301 234 183 174 173 190 214 214 220 225 217 220 213 172 48 238 174 179 211 193 171 137 167 191 186 194 192 140 140 164 156 151 165 166 173 186 154 127 106 139 174 24 89 171 317 91 111 279 285 131 190 249 303 287 274 265 257 253 252 253 247 227 232 245 250 249 249 256 271 258 212 65 77 107 117 107 109 156 179 170 190 223 231 237
260 266 189 133 285 238 182 171 177 192 211 209 214 219 212 219 205 156 181 310 77 9 263 179 157 125 123 172 184 186 167 133 125 127 109 106 101 88 97 134 137 137 146 154 153 117 131 143 144 119 161 272 279 139 164 37 9 292 265 252 248 248 246 251 251 240 237 238 244 247 241 241 240 205 178 159 146 157 167 164 159 219 232 214 217 223 221 225